,,Stat1,,Stat2,,Stat3,,Stat4,,Wind1,,Wind1,
time,status,PR1M_SUM,status,RH1M_AVG,status,SR1M_AVG,status,TA1M_AVG,status,W1dAve1m,status,W1sAve1m,
1999-09-20, 00:01:00,VALID,0,VALID,100,VALID,-0.0169808,VALID,17.8318,VALID,209,VALID,1.29948,
1999-09-20, 00:02:00,VALID,0,VALID,100,VALID,0,VALID,17.836,VALID,208,VALID,1.47336,
1999-09-20, 00:03:00,VALID,0,VALID,100,VALID,0,VALID,17.8258,VALID,203,VALID,1.36959,
1999-09-20, 00:04:00,VALID,0,VALID,100,VALID,0,VALID,17.8551,VALID,185,VALID,1.7097,
1999-09-20, 00:05:00,VALID,0,VALID,100,VALID,-0.0169808,VALID,17.8778,VALID,191,VALID,2.11719,
1999-09-20, 00:06:00,VALID,0,VALID,100,VALID,0,VALID,17.8909,VALID,194,VALID,1.6266,
1999-09-20, 00:07:00,VALID,0,VALID,100,VALID,0,VALID,17.8868,VALID,199,VALID,1.5643,
1999-09-20, 00:08:00,VALID,0,VALID,100,VALID,0,VALID,17.884,VALID,193,VALID,1.1507,
1999-09-20, 00:09:00,VALID,0,VALID,100,VALID,-0.0169808,VALID,17.8974,VALID,183,VALID,1.1863,
1999-09-20, 00:10:00,VALID,0,VALID,100,VALID,0,VALID,17.8806,VALID,190,VALID,1.36275,
1999-09-20, 00:11:00,VALID,0,VALID,100,VALID,0,VALID,17.8706,VALID,194,VALID,1.61152,
1999-09-20, 00:12:00,VALID,0,VALID,100,VALID,0,VALID,17.9099,VALID,198,VALID,1.76663,
1999-09-20, 00:13:00,VALID,0,VALID,100,VALID,-0.0339617,VALID,17.9032,VALID,189,VALID,1.58574,
1999-09-20, 00:14:00,VALID,0,VALID,100,VALID,-0.0169808,VALID,17.9066,VALID,191,VALID,1.72245,
1999-09-20, 00:15:00,VALID,0,VALID,100,VALID,0,VALID,17.9258,VALID,196,VALID,1.45508,
1999-09-20, 00:16:00,VALID,0,VALID,100,VALID,-0.0169808,VALID,17.9064,VALID,199,VALID,1.26056,
1999-09-20, 00:17:00,VALID,0,VALID,100,VALID,-0.0339617,VALID,17.9066,VALID,207,VALID,1.25845,
1999-09-20, 00:18:01,VALID,0,VALID,100,VALID,0,VALID,17.8997,VALID,215,VALID,1.46294,
1999-09-20, 00:19:00,VALID,0,VALID,100,VALID,0,VALID,17.8833,VALID,213,VALID,1.48849,
1999-09-20, 00:20:00,VALID,0,VALID,100,VALID,-0.0169808,VALID,17.8711,VALID,223,VALID,1.21115,
1999-09-20, 00:21:00,VALID,0,VALID,100,VALID,-0.0169808,VALID,17.8517,VALID,224,VALID,1.78639,
1999-09-20, 00:22:00,VALID,0,VALID,100,VALID,-0.0169808,VALID,17.8258,VALID,229,VALID,1.40358,
1999-09-20, 00:23:00,VALID,0,VALID,100,VALID,-0.0339617,VALID,17.7997,VALID,225,VALID,1.32031,
1999-09-20, 00:24:00,VALID,0,VALID,100,VALID,0,VALID,17.7903,VALID,224,VALID,1.25881,
1999-09-20, 00:25:00,VALID,0,VALID,100,VALID,-0.0339617,VALID,17.7579,VALID,216,VALID,1.0877,
1999-09-20, 00:26:00,VALID,0,VALID,100,VALID,-0.0169808,VALID,17.7418,VALID,204,VALID,1.16786,
1999-09-20, 00:27:00,VALID,0,VALID,100,VALID,-0.0169808,VALID,17.7325,VALID,210,VALID,0.779883,
1999-09-20, 00:28:01,VALID,0,VALID,100,VALID,-0.0169808,VALID,17.7127,VALID,204,VALID,0.915502,
1999-09-20, 00:29:00,VALID,0,VALID,100,VALID,0,VALID,17.7062,VALID,206,VALID,1.2329,
1999-09-20, 00:30:00,VALID,0,VALID,100,VALID,-0.0339617,VALID,17.7097,VALID,213,VALID,1.39022,
1999-09-20, 00:31:00,VALID,0,VALID,100,VALID,-0.0169808,VALID,17.6866,VALID,216,VALID,1.64672,
1999-09-20, 00:32:00,VALID,0,VALID,100,VALID,-0.0339617,VALID,17.6935,VALID,212,VALID,1.29961,
1999-09-20, 00:33:00,VALID,0,VALID,100,VALID,-0.0169808,VALID,17.6868,VALID,217,VALID,1.78803,
1999-09-20, 00:34:00,VALID,0,VALID,100,VALID,-0.0339617,VALID,17.7129,VALID,216,VALID,1.3367,
1999-09-20, 00:35:00,VALID,0,VALID,100,VALID,0,VALID,17.7323,VALID,218,VALID,1.47656,
1999-09-20, 00:36:00,VALID,0,VALID,100,VALID,-0.0339617,VALID,17.7644,VALID,209,VALID,1.76626,
1999-09-20, 00:37:00,VALID,0,VALID,100,VALID,0,VALID,17.8,VALID,201,VALID,1.76382,
1999-09-20, 00:38:00,VALID,0,VALID,100,VALID,-0.0509425,VALID,17.8261,VALID,211,VALID,1.85304,
1999-09-20, 00:39:00,VALID,0,VALID,100,VALID,-0.0169808,VALID,17.8452,VALID,222,VALID,1.87582,
1999-09-20, 00:40:00,VALID,0,VALID,100,VALID,-0.0339617,VALID,17.8681,VALID,222,VALID,2.12007,
1999-09-20, 00:41:00,VALID,0,VALID,100,VALID,0.0169808,VALID,17.8866,VALID,219,VALID,1.67588,
1999-09-20, 00:42:00,VALID,0,VALID,100,VALID,0,VALID,17.906,VALID,216,VALID,1.63302,
1999-09-20, 00:43:00,VALID,0,VALID,100,VALID,0.0339617,VALID,17.9251,VALID,210,VALID,1.66621,
1999-09-20, 00:44:00,VALID,0,VALID,100,VALID,0.0509425,VALID,17.9314,VALID,190,VALID,1.25321,
1999-09-20, 00:45:00,VALID,0,VALID,100,VALID,0.0509425,VALID,17.9508,VALID,216,VALID,1.32676,
1999-09-20, 00:46:00,VALID,0,VALID,100,VALID,0.0169808,VALID,17.9669,VALID,219,VALID,0.441406,
1999-09-20, 00:47:00,VALID,0,VALID,100,VALID,0.0169808,VALID,17.9898,VALID,245,VALID,0.582617,
1999-09-20, 00:48:00,VALID,0,VALID,100,VALID,0.0509425,VALID,17.9801,VALID,232,VALID,0.550887,
1999-09-20, 00:49:00,VALID,0,VALID,100,VALID,0.0339617,VALID,17.9702,VALID,300,VALID,0.452914,
1999-09-20, 00:50:01,VALID,0,VALID,100,VALID,0.0509425,VALID,17.951,VALID,340,VALID,0.568309,
1999-09-20, 00:51:01,VALID,0,VALID,100,VALID,0.0339617,VALID,17.9254,VALID,342,VALID,0.424548,
1999-09-20, 00:52:00,VALID,0,VALID,100,VALID,0.0509425,VALID,17.8766,VALID,325,VALID,0.462627,
1999-09-20, 00:53:00,VALID,0,VALID,100,VALID,0.0509425,VALID,17.812,VALID,344,VALID,0.52097,
1999-09-20, 00:54:00,VALID,0,VALID,100,VALID,0.0849042,VALID,17.7698,VALID,346,VALID,0.410979,
1999-09-20, 00:55:00,VALID,0,VALID,100,VALID,0.0339617,VALID,17.7437,VALID,323,VALID,0.484776,
1999-09-20, 00:56:00,VALID,0,VALID,100,VALID,-0.0679233,VALID,17.7321,VALID,316,VALID,0.248598,
1999-09-20, 00:57:00,VALID,0,VALID,100,VALID,-0.0849042,VALID,17.7034,VALID,312,VALID,0.163086,
1999-09-20, 00:58:00,VALID,0,VALID,100,VALID,-0.0849042,VALID,17.6935,VALID,334,VALID,0.387054,
1999-09-20, 00:59:00,VALID,0,VALID,100,VALID,0,VALID,17.6903,VALID,304,VALID,0,
1999-09-20, 01:00:00,VALID,0,VALID,100,VALID,-0.0849042,VALID,17.6677,VALID,289,VALID,0.00102796,
1999-09-20, 01:01:00,VALID,0,VALID,100,VALID,-0.0849042,VALID,17.6485,VALID,278,VALID,0,
1999-09-20, 01:02:00,VALID,0,VALID,100,VALID,-0.0509425,VALID,17.6194,VALID,278,VALID,0.00120192,
1999-09-20, 01:03:00,VALID,0,VALID,100,VALID,-0.0509425,VALID,17.5802,VALID,278,VALID,0,
1999-09-20, 01:04:00,VALID,0,VALID,100,VALID,-0.0339617,VALID,17.5448,VALID,278,VALID,0,
1999-09-20, 01:05:00,VALID,0,VALID,100,VALID,-0.0679233,VALID,17.5058,VALID,269,VALID,0.00390625,
1999-09-20, 01:06:00,VALID,0,VALID,100,VALID,-0.0169808,VALID,17.461,VALID,234,VALID,0.0830793,
1999-09-20, 01:07:00,VALID,0,VALID,100,VALID,-0.0679233,VALID,17.4319,VALID,232,VALID,0,
1999-09-20, 01:08:00,VALID,0,VALID,100,VALID,-0.0509425,VALID,17.4033,VALID,206,VALID,0,
1999-09-20, 01:09:00,VALID,0,VALID,100,VALID,-0.0509425,VALID,17.3703,VALID,182,VALID,0.189503,
1999-09-20, 01:10:00,VALID,0,VALID,100,VALID,-0.0509425,VALID,17.3417,VALID,117,VALID,0.426098,
1999-09-20, 01:11:00,VALID,0,VALID,100,VALID,-0.0849042,VALID,17.3966,VALID,102,VALID,0.22389,
1999-09-20, 01:12:00,VALID,0,VALID,100,VALID,-0.0849042,VALID,17.4255,VALID,121,VALID,0,
1999-09-20, 01:13:01,VALID,0,VALID,100,VALID,-0.0169808,VALID,17.4802,VALID,122,VALID,0,
1999-09-20, 01:14:00,VALID,0,VALID,100,VALID,-0.0169808,VALID,17.5157,VALID,122,VALID,0,
1999-09-20, 01:15:00,VALID,0,VALID,100,VALID,-0.0679233,VALID,17.5908,VALID,243,VALID,0.467383,
1999-09-20, 01:16:00,VALID,0,VALID,100,VALID,-0.0339617,VALID,17.6485,VALID,236,VALID,0.458934,
1999-09-20, 01:17:00,VALID,0,VALID,100,VALID,-0.0509425,VALID,17.6159,VALID,242,VALID,0.601563,
1999-09-20, 01:18:00,VALID,0,VALID,100,VALID,-0.0339617,VALID,17.5968,VALID,255,VALID,0.846628,
1999-09-20, 01:19:00,VALID,0,VALID,100,VALID,-0.0679233,VALID,17.6614,VALID,245,VALID,0.7875,
1999-09-20, 01:20:00,VALID,0,VALID,100,VALID,-0.0679233,VALID,17.7037,VALID,246,VALID,0.741976,
1999-09-20, 01:21:00,VALID,0,VALID,100,VALID,-0.0339617,VALID,17.7392,VALID,231,VALID,0.797086,
1999-09-20, 01:22:00,VALID,0,VALID,100,VALID,-0.0339617,VALID,17.7067,VALID,222,VALID,0.410857,
1999-09-20, 01:23:00,VALID,0,VALID,100,VALID,-0.0339617,VALID,17.6448,VALID,214,VALID,0.756168,
1999-09-20, 01:24:01,VALID,0,VALID,100,VALID,-0.0509425,VALID,17.6032,VALID,223,VALID,0.915118,
1999-09-20, 01:25:00,VALID,0,VALID,100,VALID,-0.0509425,VALID,17.597,VALID,226,VALID,0.82134,
1999-09-20, 01:26:00,VALID,0,VALID,100,VALID,-0.0849042,VALID,17.6125,VALID,229,VALID,0.875,
1999-09-20, 01:27:00,VALID,0,VALID,100,VALID,-0.0339617,VALID,17.6483,VALID,218,VALID,0.791266,
1999-09-20, 01:28:00,VALID,0,VALID,100,VALID,-0.0169808,VALID,17.6907,VALID,222,VALID,0.816106,
1999-09-20, 01:29:00,VALID,0,VALID,100,VALID,-0.0339617,VALID,17.7192,VALID,225,VALID,0.973242,
1999-09-20, 01:30:00,VALID,0,VALID,100,VALID,-0.0169808,VALID,17.7485,VALID,229,VALID,1.09866,
1999-09-20, 01:31:00,VALID,0,VALID,100,VALID,-0.0509425,VALID,17.784,VALID,229,VALID,0.847266,
1999-09-20, 01:32:00,VALID,0,VALID,100,VALID,-0.0169808,VALID,17.7776,VALID,230,VALID,0.754934,
1999-09-20, 01:33:00,VALID,0,VALID,100,VALID,0,VALID,17.7711,VALID,245,VALID,0.464105,
1999-09-20, 01:34:00,VALID,0,VALID,100,VALID,0,VALID,17.7485,VALID,253,VALID,0.157853,
1999-09-20, 01:35:01,VALID,0,VALID,100,VALID,0,VALID,17.7159,VALID,236,VALID,0.383003,
1999-09-20, 01:36:00,VALID,0,VALID,100,VALID,-0.0169808,VALID,17.6868,VALID,234,VALID,0.471289,
1999-09-20, 01:37:00,VALID,0,VALID,100,VALID,-0.0169808,VALID,17.6547,VALID,231,VALID,0.513775,
1999-09-20, 01:38:00,VALID,0,VALID,100,VALID,-0.0339617,VALID,17.6192,VALID,222,VALID,0.58327,
1999-09-20, 01:39:00,VALID,0,VALID,100,VALID,0,VALID,17.6095,VALID,225,VALID,0.528083,
1999-09-20, 01:40:00,VALID,0,VALID,100,VALID,-0.0169808,VALID,17.6,VALID,223,VALID,0.497889,
1999-09-20, 01:41:00,VALID,0,VALID,100,VALID,-0.0509425,VALID,17.6166,VALID,212,VALID,0.488782,
1999-09-20, 01:42:00,VALID,0,VALID,100,VALID,-0.0849042,VALID,17.6265,VALID,202,VALID,0.478885,
1999-09-20, 01:43:00,VALID,0,VALID,100,VALID,-0.0339617,VALID,17.6332,VALID,184,VALID,0.582031,
1999-09-20, 01:44:00,VALID,0,VALID,100,VALID,-0.0849042,VALID,17.6625,VALID,189,VALID,0.788035,
1999-09-20, 01:45:00,VALID,0,VALID,100,VALID,-0.0849042,VALID,17.7362,VALID,206,VALID,1.03766,
1999-09-20, 01:46:01,VALID,0,VALID,100,VALID,-0.0849042,VALID,17.8006,VALID,199,VALID,0.867188,
1999-09-20, 01:47:00,VALID,0,VALID,100,VALID,-0.0679233,VALID,17.8304,VALID,203,VALID,0.80957,
1999-09-20, 01:48:00,VALID,0,VALID,100,VALID,-0.0509425,VALID,17.8173,VALID,212,VALID,1.13702,
1999-09-20, 01:49:00,VALID,0,VALID,100,VALID,-0.0679233,VALID,17.8237,VALID,205,VALID,0.897852,
1999-09-20, 01:50:00,VALID,0,VALID,100,VALID,-0.0509425,VALID,17.8304,VALID,185,VALID,0.865132,
1999-09-20, 01:51:00,VALID,0,VALID,100,VALID,-0.0849042,VALID,17.8272,VALID,189,VALID,1.12676,
1999-09-20, 01:52:00,VALID,0,VALID,100,VALID,-0.101885,VALID,17.8793,VALID,189,VALID,1.0095,
1999-09-20, 01:53:00,VALID,0,VALID,100,VALID,-0.0849042,VALID,17.8657,VALID,197,VALID,1.08319,
1999-09-20, 01:54:00,VALID,0,VALID,100,VALID,-0.0339617,VALID,17.8757,VALID,192,VALID,1.20793,
1999-09-20, 01:55:00,VALID,0,VALID,100,VALID,-0.0849042,VALID,17.905,VALID,195,VALID,1.08758,
1999-09-20, 01:56:00,VALID,0,VALID,100,VALID,-0.101885,VALID,17.8983,VALID,208,VALID,1.17272,
1999-09-20, 01:57:01,VALID,0,VALID,100,VALID,-0.0679233,VALID,17.9045,VALID,210,VALID,0.982525,
1999-09-20, 01:58:00,VALID,0,VALID,100,VALID,-0.101885,VALID,17.8951,VALID,202,VALID,0.766859,
1999-09-20, 01:59:00,VALID,0,VALID,100,VALID,-0.0849042,VALID,17.8951,VALID,202,VALID,0.903646,
1999-09-20, 02:00:00,VALID,0,VALID,100,VALID,-0.0849042,VALID,17.8625,VALID,201,VALID,0.677885,
1999-09-20, 02:01:00,VALID,0,VALID,100,VALID,-0.101885,VALID,17.8597,VALID,197,VALID,0.841602,
1999-09-20, 02:02:00,VALID,0,VALID,100,VALID,-0.0679233,VALID,17.814,VALID,200,VALID,0.55067,
1999-09-20, 02:03:00,VALID,0,VALID,100,VALID,-0.0849042,VALID,17.7625,VALID,209,VALID,0.801367,
1999-09-20, 02:04:00,VALID,0,VALID,100,VALID,-0.0339617,VALID,17.772,VALID,212,VALID,0.642887,
1999-09-20, 02:05:00,VALID,0,VALID,100,VALID,-0.0679233,VALID,17.7452,VALID,202,VALID,0.786951,
1999-09-20, 02:06:00,VALID,0,VALID,100,VALID,-0.0849042,VALID,17.736,VALID,189,VALID,0.81871,
1999-09-20, 02:07:00,VALID,0,VALID,100,VALID,-0.0169808,VALID,17.6914,VALID,176,VALID,0.504573,
1999-09-20, 02:08:00,VALID,0,VALID,100,VALID,-0.0509425,VALID,17.6104,VALID,170,VALID,0.858594,
1999-09-20, 02:09:00,VALID,0,VALID,100,VALID,-0.0509425,VALID,17.6076,VALID,195,VALID,0.982936,
1999-09-20, 02:10:00,VALID,0,VALID,100,VALID,-0.118866,VALID,17.6815,VALID,182,VALID,0.966082,
1999-09-20, 02:11:00,VALID,0,VALID,100,VALID,0.0169808,VALID,17.694,VALID,188,VALID,1.26246,
1999-09-20, 02:12:00,VALID,0,VALID,100,VALID,-0.0169808,VALID,17.6901,VALID,184,VALID,1.41301,
1999-09-20, 02:13:00,VALID,0,VALID,100,VALID,0.0339617,VALID,17.6836,VALID,192,VALID,1.07652,
1999-09-20, 02:14:00,VALID,0,VALID,100,VALID,0,VALID,17.6836,VALID,187,VALID,0.783573,
1999-09-20, 02:15:00,VALID,0,VALID,100,VALID,0.0169808,VALID,17.6608,VALID,201,VALID,0.976768,
1999-09-20, 02:16:00,VALID,0,VALID,100,VALID,0,VALID,17.667,VALID,200,VALID,1.52241,
1999-09-20, 02:17:00,VALID,0,VALID,100,VALID,0.0679233,VALID,17.709,VALID,193,VALID,1.13962,
1999-09-20, 02:18:00,VALID,0,VALID,100,VALID,0.0339617,VALID,17.7321,VALID,188,VALID,1.02365,
1999-09-20, 02:19:00,VALID,0,VALID,100,VALID,0,VALID,17.6804,VALID,175,VALID,1.10215,
1999-09-20, 02:20:00,VALID,0,VALID,100,VALID,0.0339617,VALID,17.664,VALID,180,VALID,1.52885,
1999-09-20, 02:21:00,VALID,0,VALID,100,VALID,0.0509425,VALID,17.6741,VALID,187,VALID,1.52266,
1999-09-20, 02:22:00,VALID,0,VALID,100,VALID,0.0509425,VALID,17.6603,VALID,196,VALID,1.21402,
1999-09-20, 02:23:00,VALID,0,VALID,100,VALID,0.0509425,VALID,17.6608,VALID,194,VALID,1.1627,
1999-09-20, 02:24:00,VALID,0,VALID,100,VALID,0.0509425,VALID,17.6254,VALID,195,VALID,1.17145,
1999-09-20, 02:25:00,VALID,0,VALID,100,VALID,0.0169808,VALID,17.6084,VALID,184,VALID,1.17546,
1999-09-20, 02:26:00,VALID,0,VALID,100,VALID,0.0509425,VALID,17.5961,VALID,190,VALID,1.29287,
1999-09-20, 02:27:00,VALID,0,VALID,100,VALID,0.0509425,VALID,17.5666,VALID,191,VALID,1.2794,
1999-09-20, 02:28:00,VALID,0,VALID,100,VALID,0.0509425,VALID,17.5993,VALID,189,VALID,1.13725,
1999-09-20, 02:29:00,VALID,0,VALID,100,VALID,0.0339617,VALID,17.6123,VALID,182,VALID,1.43688,
1999-09-20, 02:30:00,VALID,0,VALID,100,VALID,0.0339617,VALID,17.5927,VALID,164,VALID,0.5919,
1999-09-20, 02:31:00,VALID,0,VALID,100,VALID,0.0339617,VALID,17.5188,VALID,164,VALID,0.416466,
1999-09-20, 02:32:00,VALID,0,VALID,100,VALID,0.0169808,VALID,17.4666,VALID,170,VALID,0.388822,
1999-09-20, 02:33:00,VALID,0,VALID,100,VALID,0.0339617,VALID,17.425,VALID,155,VALID,0.366016,
1999-09-20, 02:34:00,VALID,0,VALID,100,VALID,0.0169808,VALID,17.4022,VALID,157,VALID,0.248661,
1999-09-20, 02:35:00,VALID,0,VALID,100,VALID,0.0849042,VALID,17.3468,VALID,160,VALID,0.425977,
1999-09-20, 02:36:00,VALID,0,VALID,100,VALID,0.0169808,VALID,17.3636,VALID,171,VALID,0.503495,
1999-09-20, 02:37:00,VALID,0,VALID,100,VALID,0.0339617,VALID,17.3509,VALID,171,VALID,0.422297,
1999-09-20, 02:38:00,VALID,0,VALID,100,VALID,0.0339617,VALID,17.3119,VALID,171,VALID,0.381611,
1999-09-20, 02:39:00,VALID,0,VALID,100,VALID,0.0339617,VALID,17.2408,VALID,171,VALID,0.257813,
1999-09-20, 02:40:00,VALID,0,VALID,100,VALID,0.0339617,VALID,17.0827,VALID,167,VALID,0.289634,
1999-09-20, 02:41:00,VALID,0,VALID,100,VALID,0,VALID,17.0439,VALID,165,VALID,0.135074,
1999-09-20, 02:42:00,VALID,0,VALID,100,VALID,0,VALID,17.0081,VALID,165,VALID,0,
1999-09-20, 02:43:00,VALID,0,VALID,100,VALID,0,VALID,16.9952,VALID,165,VALID,0,
1999-09-20, 02:44:00,VALID,0,VALID,100,VALID,0,VALID,16.9758,VALID,180,VALID,0,
1999-09-20, 02:45:00,VALID,0,VALID,100,VALID,-0.0339617,VALID,16.9859,VALID,213,VALID,0.494391,
1999-09-20, 02:46:00,VALID,0,VALID,100,VALID,0,VALID,17.009,VALID,214,VALID,0.830025,
1999-09-20, 02:47:00,VALID,0,VALID,100,VALID,-0.0339617,VALID,17.0833,VALID,201,VALID,0.957648,
1999-09-20, 02:48:00,VALID,0,VALID,100,VALID,0,VALID,17.1732,VALID,193,VALID,1.36143,
1999-09-20, 02:49:00,VALID,0,VALID,100,VALID,0,VALID,17.2675,VALID,195,VALID,1.27204,
1999-09-20, 02:50:00,VALID,0,VALID,100,VALID,-0.0169808,VALID,17.2576,VALID,203,VALID,0.924831,
1999-09-20, 02:51:01,VALID,0,VALID,100,VALID,-0.0169808,VALID,17.2447,VALID,199,VALID,1.28008,
1999-09-20, 02:52:00,VALID,0,VALID,100,VALID,0,VALID,17.2897,VALID,194,VALID,1.54728,
1999-09-20, 02:53:00,VALID,0,VALID,100,VALID,0.0169808,VALID,17.3216,VALID,196,VALID,1.52324,
1999-09-20, 02:54:00,VALID,0,VALID,100,VALID,-0.0169808,VALID,17.332,VALID,194,VALID,1.26953,
1999-09-20, 02:55:00,VALID,0,VALID,100,VALID,-0.0169808,VALID,17.3352,VALID,200,VALID,1.42168,
1999-09-20, 02:56:00,VALID,0,VALID,100,VALID,0,VALID,17.319,VALID,205,VALID,1.16322,
1999-09-20, 02:57:00,VALID,0,VALID,100,VALID,-0.0169808,VALID,17.3093,VALID,201,VALID,1.17969,
1999-09-20, 02:58:00,VALID,0,VALID,100,VALID,-0.0169808,VALID,17.2994,VALID,204,VALID,0.955128,
1999-09-20, 02:59:00,VALID,0,VALID,100,VALID,0,VALID,17.3031,VALID,202,VALID,0.988692,
1999-09-20, 03:00:00,VALID,0,VALID,100,VALID,0,VALID,17.296,VALID,191,VALID,1.31715,
1999-09-20, 03:01:00,VALID,0,VALID,100,VALID,0,VALID,17.2992,VALID,195,VALID,1.04934,
1999-09-20, 03:02:00,VALID,0,VALID,100,VALID,0,VALID,17.2863,VALID,201,VALID,1.30613,
1999-09-20, 03:03:00,VALID,0,VALID,100,VALID,-0.0339617,VALID,17.3029,VALID,200,VALID,1.36619,
1999-09-20, 03:04:00,VALID,0,VALID,100,VALID,0.0169808,VALID,17.3225,VALID,207,VALID,1.30028,
1999-09-20, 03:05:00,VALID,0,VALID,100,VALID,0,VALID,17.335,VALID,201,VALID,1.53398,
1999-09-20, 03:06:00,VALID,0,VALID,100,VALID,0.0339617,VALID,17.3345,VALID,203,VALID,1.54978,
1999-09-20, 03:07:00,VALID,0,VALID,100,VALID,0,VALID,17.3218,VALID,202,VALID,1.28691,
1999-09-20, 03:08:00,VALID,0,VALID,100,VALID,0,VALID,17.322,VALID,200,VALID,1.24712,
1999-09-20, 03:09:00,VALID,0,VALID,100,VALID,0,VALID,17.319,VALID,200,VALID,1.20418,
1999-09-20, 03:10:00,VALID,0,VALID,100,VALID,0,VALID,17.302,VALID,203,VALID,0.949519,
1999-09-20, 03:11:00,VALID,0,VALID,100,VALID,0,VALID,17.3255,VALID,193,VALID,1.16864,
1999-09-20, 03:12:00,VALID,0,VALID,100,VALID,0,VALID,17.3154,VALID,189,VALID,1.03828,
1999-09-20, 03:13:01,VALID,0,VALID,100,VALID,0,VALID,17.3257,VALID,187,VALID,1.15789,
1999-09-20, 03:14:00,VALID,0,VALID,100,VALID,0,VALID,17.3057,VALID,193,VALID,1.07832,
1999-09-20, 03:15:00,VALID,0,VALID,100,VALID,0,VALID,17.3119,VALID,200,VALID,1.00063,
1999-09-20, 03:16:00,VALID,0,VALID,100,VALID,0,VALID,17.3257,VALID,207,VALID,1.05152,
1999-09-20, 03:17:00,VALID,0,VALID,100,VALID,-0.0169808,VALID,17.3057,VALID,212,VALID,0.920873,
1999-09-20, 03:18:00,VALID,0,VALID,100,VALID,0,VALID,17.2802,VALID,213,VALID,1.27302,
1999-09-20, 03:19:00,VALID,0,VALID,100,VALID,-0.0169808,VALID,17.2609,VALID,216,VALID,1.32257,
1999-09-20, 03:20:00,VALID,0,VALID,100,VALID,-0.0169808,VALID,17.2477,VALID,216,VALID,1.71793,
1999-09-20, 03:21:00,VALID,0,VALID,100,VALID,0,VALID,17.2675,VALID,214,VALID,1.65024,
1999-09-20, 03:22:00,VALID,0,VALID,100,VALID,0.0169808,VALID,17.2835,VALID,209,VALID,1.42124,
1999-09-20, 03:23:01,VALID,0,VALID,100,VALID,-0.0339617,VALID,17.3033,VALID,212,VALID,1.60664,
1999-09-20, 03:24:01,VALID,0,VALID,100,VALID,0.0339617,VALID,17.3128,VALID,216,VALID,1.34655,
1999-09-20, 03:25:00,VALID,0,VALID,100,VALID,0,VALID,17.2994,VALID,216,VALID,1.20586,
1999-09-20, 03:26:00,VALID,0,VALID,100,VALID,0,VALID,17.3255,VALID,208,VALID,1.066,
1999-09-20, 03:27:00,VALID,0,VALID,100,VALID,0,VALID,17.3253,VALID,213,VALID,0.731445,
1999-09-20, 03:28:00,VALID,0,VALID,100,VALID,0,VALID,17.3481,VALID,207,VALID,0.942568,
1999-09-20, 03:29:00,VALID,0,VALID,100,VALID,0,VALID,17.3645,VALID,207,VALID,0.764147,
1999-09-20, 03:30:00,VALID,0,VALID,100,VALID,0,VALID,17.3675,VALID,204,VALID,0.913862,
1999-09-20, 03:31:00,VALID,0,VALID,100,VALID,0,VALID,17.3638,VALID,201,VALID,0.89412,
1999-09-20, 03:32:00,VALID,0,VALID,100,VALID,0,VALID,17.3929,VALID,194,VALID,1.11634,
1999-09-20, 03:33:00,VALID,0,VALID,100,VALID,0,VALID,17.422,VALID,189,VALID,1.03721,
1999-09-20, 03:34:00,VALID,0,VALID,100,VALID,0,VALID,17.4283,VALID,193,VALID,0.80366,
1999-09-20, 03:35:00,VALID,0,VALID,100,VALID,0,VALID,17.4061,VALID,200,VALID,0.742388,
1999-09-20, 03:36:00,VALID,0,VALID,100,VALID,0,VALID,17.3931,VALID,196,VALID,1.02424,
1999-09-20, 03:37:00,VALID,0,VALID,100,VALID,-0.0169808,VALID,17.4166,VALID,192,VALID,1.18145,
1999-09-20, 03:38:00,VALID,0,VALID,100,VALID,0,VALID,17.425,VALID,189,VALID,1.20915,
1999-09-20, 03:39:00,VALID,0,VALID,100,VALID,0,VALID,17.4513,VALID,189,VALID,1.22383,
1999-09-20, 03:40:00,VALID,0,VALID,100,VALID,0,VALID,17.4548,VALID,188,VALID,1.0514,
1999-09-20, 03:41:00,VALID,0,VALID,100,VALID,-0.0339617,VALID,17.4515,VALID,180,VALID,0.957981,
1999-09-20, 03:42:00,VALID,0,VALID,100,VALID,-0.0679233,VALID,17.4164,VALID,191,VALID,0.828926,
1999-09-20, 03:43:00,VALID,0,VALID,100,VALID,-0.0679233,VALID,17.3807,VALID,188,VALID,0.591844,
1999-09-20, 03:44:00,VALID,0,VALID,100,VALID,-0.0509425,VALID,17.3479,VALID,187,VALID,0.698242,
1999-09-20, 03:45:01,VALID,0,VALID,100,VALID,-0.0339617,VALID,17.3061,VALID,187,VALID,0.729441,
1999-09-20, 03:46:01,VALID,0,VALID,100,VALID,-0.0339617,VALID,17.2619,VALID,188,VALID,0.933499,
1999-09-20, 03:47:00,VALID,0,VALID,100,VALID,-0.0339617,VALID,17.232,VALID,175,VALID,1.10494,
1999-09-20, 03:48:00,VALID,0,VALID,100,VALID,-0.0339617,VALID,17.1962,VALID,168,VALID,0.975507,
1999-09-20, 03:49:00,VALID,0,VALID,100,VALID,-0.0169808,VALID,17.1581,VALID,163,VALID,1.22837,
1999-09-20, 03:50:00,VALID,0,VALID,100,VALID,-0.0339617,VALID,17.0997,VALID,154,VALID,1.17568,
1999-09-20, 03:51:00,VALID,0,VALID,100,VALID,-0.0509425,VALID,17.0549,VALID,154,VALID,1.14268,
1999-09-20, 03:52:00,VALID,0,VALID,100,VALID,-0.0849042,VALID,17.032,VALID,154,VALID,1.17496,
1999-09-20, 03:53:00,VALID,0,VALID,100,VALID,-0.0509425,VALID,17.0225,VALID,162,VALID,1.20893,
1999-09-20, 03:54:00,VALID,0,VALID,100,VALID,-0.0679233,VALID,17.0609,VALID,181,VALID,1.18328,
1999-09-20, 03:55:00,VALID,0,VALID,100,VALID,-0.0509425,VALID,17.0706,VALID,199,VALID,1.20039,
1999-09-20, 03:56:01,VALID,0,VALID,100,VALID,-0.0169808,VALID,17.0542,VALID,200,VALID,1.19271,
1999-09-20, 03:57:01,VALID,0,VALID,100,VALID,-0.0509425,VALID,17.0383,VALID,204,VALID,1.16602,
1999-09-20, 03:58:00,VALID,0,VALID,100,VALID,-0.0339617,VALID,17.0807,VALID,204,VALID,1.05613,
1999-09-20, 03:59:00,VALID,0,VALID,100,VALID,-0.0849042,VALID,17.0969,VALID,195,VALID,1.01582,
1999-09-20, 04:00:00,VALID,0,VALID,100,VALID,-0.101885,VALID,17.0807,VALID,188,VALID,1.07791,
1999-09-20, 04:01:00,VALID,0,VALID,100,VALID,-0.101885,VALID,17.0932,VALID,191,VALID,1.4413,
1999-09-20, 04:02:00,VALID,0,VALID,100,VALID,-0.101885,VALID,17.1652,VALID,180,VALID,1.40765,
1999-09-20, 04:03:00,VALID,0,VALID,100,VALID,-0.0849042,VALID,17.1686,VALID,186,VALID,1.1324,
1999-09-20, 04:04:00,VALID,0,VALID,100,VALID,-0.0679233,VALID,17.1391,VALID,195,VALID,1.14168,
1999-09-20, 04:05:00,VALID,0,VALID,100,VALID,-0.0849042,VALID,17.1555,VALID,209,VALID,1.14001,
1999-09-20, 04:06:00,VALID,0,VALID,100,VALID,-0.0849042,VALID,17.2236,VALID,196,VALID,0.869243,
1999-09-20, 04:07:00,VALID,0,VALID,100,VALID,-0.0339617,VALID,17.2488,VALID,188,VALID,0.91226,
1999-09-20, 04:08:01,VALID,0,VALID,100,VALID,-0.0679233,VALID,17.2522,VALID,186,VALID,1.04908,
1999-09-20, 04:09:00,VALID,0,VALID,100,VALID,-0.0849042,VALID,17.2128,VALID,183,VALID,1.03926,
1999-09-20, 04:10:00,VALID,0,VALID,100,VALID,-0.0849042,VALID,17.1811,VALID,174,VALID,1.07522,
1999-09-20, 04:11:00,VALID,0,VALID,100,VALID,-0.0679233,VALID,17.1193,VALID,169,VALID,1.13398,
1999-09-20, 04:12:00,VALID,0,VALID,100,VALID,0.0339617,VALID,17.0665,VALID,171,VALID,1.29708,
1999-09-20, 04:13:00,VALID,0,VALID,100,VALID,0.0339617,VALID,17.1021,VALID,172,VALID,1.32939,
1999-09-20, 04:14:00,VALID,0,VALID,100,VALID,0.0679233,VALID,17.1473,VALID,175,VALID,1.45773,
1999-09-20, 04:15:00,VALID,0,VALID,100,VALID,0.0509425,VALID,17.1635,VALID,187,VALID,1.31898,